Location: DARK SKY Beskydy - Park tmavé oblohy, www.darkskybeskydy.cz
(49.4926°N, 18.5016°E)
Time: 01:04:56
(UTC+02:00)

Vanguard 1 - Pass Details

Date: 22 February 2024
Orbit: 653 x 3825 km, 34.2° (Epoch: 22 April)

Event Time Altitude Azimuth Distance (km) Brightness Sun altitude
Rises 02:08:04 0° 278° (W) 7,669 - -42.7°
Reaches altitude 10° 02:13:59 10° 270° (W) 6,839 - -42.1°
Maximum altitude 02:32:17 32° 218° (SW) 5,133 - -39.8°
Exits shadow 02:43:14 20° 178° (S) 5,366 13.5 -38.3°
Drops below altitude 10° 02:48:00 10° 165° (SSE) 5,825 13.8 -37.7°
Sets 02:52:36 0° 155° (SSE) 6,434 14.2 -37.1°
